Location: Home
(42.5358°N, 72.7383°W)
Time: 15:31:40
(UTC-05:00)

CAS-4B - Visible Passes

Search period start: 22 January 2022 00:00
Search period end: 01 February 2022 00:00
Orbit: 529 x 538 km, 43.0° (Epoch: 22 January)

Date Brightness Start Highest point End Pass type
(mag) Time Alt. Az. Time Alt. Az. Time Alt. Az.
28 Jan ? 18:38:04 10° SSE 18:38:19 10° SSE 18:38:19 10° SSE visible
29 Jan ? 18:25:38 10° S 18:27:45 14° SE 18:28:00 14° SE visible
29 Jan ? 20:03:17 10° SW 20:03:18 10° SW 20:03:18 10° SW visible
30 Jan ? 18:13:41 10° S 18:16:22 17° SE 18:17:36 15° ESE visible
30 Jan ? 19:51:56 10° WSW 19:52:54 17° SW 19:52:54 17° SW visible
31 Jan ? 18:01:55 10° SSW 18:05:00 21° SSE 18:07:08 14° ESE visible
31 Jan ? 19:40:37 10° WSW 19:42:26 25° WSW 19:42:26 25° WSW visible
